EHI
0 0 0 0 0 0 0 0 0 0 0 0 0 1 0 1 3 4 3 3 2 1 0 1 3 4 4 4 4 2 0 0 0 0 0 0 0 0 0 0 0 0 0 0
0 0 0 0 0 0 0 0 0 0 0 0 0 1 0 1 3 3 3 3 3 1 1 2 3 3 4 5 5 3 1 0 0 0 0 1 1 0 0 0 0 0 0 0
0 0 0 0 0 0 1 1 1 0 0 0 0 0 0 0 2 3 3 3 2 1 1 2 3 2 3 4 5 4 2 0 0 1 1 2 2 1 0 0 0 0 0 0
0 0 0 0 0 0 1 2 1 0 0 0 0 0 0 0 1 2 3 3 2 1 2 2 2 1 1 2 3 4 2 1 1 2 3 3 3 2 1 0 0 0 0 0
0 0 0 0 0 0 1 1 1 0 0 0 0 0 0 0 1 2 3 2 1 2 3 3 3 2 2 2 2 3 3 2 3 3 3 3 3 3 2 1 1 0 0 0
0 0 0 0 0 0 0 0 0 0 0 0 0 0 0 0 1 2 3 2 2 3 4 4 4 4 4 3 3 5 5 4 4 4 4 3 3 3 3 3 2 1 1 1
0 0 0 1 0 0 0 0 0 0 0 0 0 0 0 0 1 2 3 2 2 3 3 3 4 5 5 3 4 6 7 6 5 5 4 3 3 3 3 3 3 3 2 2
0 0 0 0 0 0 0 0 0 0 0 0 0 0 0 0 1 2 3 3 2 2 2 2 3 4 4 3 4 6 7 6 5 6 5 4 3 3 3 3 3 3 3 3
0 0 0 0 0 0 0 0 0 0 0 0 0 0 0 1 2 4 4 4 3 2 1 1 2 4 4 3 4 6 7 6 6 6 6 4 3 3 4 4 3 3 3 3
0 0 0 0 0 0 0 0 0 0 0 0 0 0 0 1 3 4 5 5 5 3 1 0 2 4 5 5 4 5 6 6 6 6 6 6 5 5 6 5 4 3 3 3
0 0 0 0 0 0 0 0 0 0 0 0 0 0 0 1 2 4 5 6 6 4 1 0 2 5 7 7 5 4 5 7 7 6 7 8 9 9 8 7 5 4 3 3
0 0 0 0 0 0 0 0 0 0 0 0 0 0 0 1 2 4 6 7 7 6 3 2 4 8 9 8 5 5 6 8 8 7 7 9 11 11 9 7 4 3 2 2
0 0 0 0 0 0 0 0 0 0 0 0 0 0 0 1 3 4 6 7 8 8 6 5 7 9 9 7 5 5 7 8 8 7 6 7 9 11 9 6 3 2 2 3
0 0 0 0 0 0 0 0 0 0 0 0 0 0 0 1 4 5 6 8 8 8 7 7 7 7 6 4 3 4 5 7 7 6 6 6 9 11 10 6 3 3 4 5
0 0 0 0 0 0 0 0 0 0 0 0 0 0 0 2 4 5 5 7 7 7 7 7 6 5 3 2 1 3 5 6 7 7 7 9 10 10 9 7 5 5 6 7
0 0 0 0 0 0 0 0 0 0 0 0 0 0 0 2 5 5 5 6 7 7 9 9 8 7 4 3 2 4 5 6 6 7 8 9 8 6 6 7 7 6 6 7
0 0 0 0 0 0 0 0 0 0 0 0 0 1 2 5 7 7 6 7 8 9 11 12 11 9 7 6 5 5 5 5 6 6 7 6 5 3 3 5 6 6 6 7
0 0 0 0 0 0 0 0 0 1 1 1 1 3 7 10 12 11 10 10 10 10 11 12 11 9 8 6 6 5 4 5 5 5 4 4 2 1 1 2 4 5 5 5
0 0 0 0 0 0 0 0 0 1 2 2 3 7 11 15 16 14 12 11 11 11 10 8 8 8 6 5 4 4 4 4 4 4 3 2 1 1 1 1 1 2 3 4
0 0 0 0 0 0 0 0 0 0 1 2 4 8 11 13 13 12 10 9 9 8 7 5 5 6 5 4 3 3 3 3 3 3 3 1 1 1 2 1 0 1 2 3
0 0 0 0 0 0 0 0 0 0 0 2 5 8 9 9 10 9 7 6 6 4 3 3 3 3 4 3 3 3 3 3 3 3 2 1 0 1 1 0 0 0 1 2
0 0 0 0 0 0 0 0 0 0 1 3 5 7 9 9 9 8 6 4 3 1 1 1 1 1 2 3 3 3 3 3 3 2 1 0 0 0 0 1 1 1 0 1
0 0 0 0 0 0 0 0 0 0 1 3 5 7 9 8 7 6 5 3 1 0 0 0 0 0 1 1 2 2 2 2 2 1 1 0 0 0 0 1 2 2 1 1
0 0 0 1 2 1 1 1 2 2 3 4 5 7 7 6 4 4 3 1 0 0 0 0 0 0 0 0 1 1 1 1 1 1 1 0 0 0 0 0 1 1 2 2
0 0 0 1 2 2 2 3 4 4 4 5 6 7 6 4 3 2 1 0 0 0 0 0 0 0 0 0 0 0 0 0 0 0 0 0 0 0 0 0 0 0 1 2
0 0 0 1 1 2 3 4 4 3 3 5 6 7 6 4 3 1 0 0 0 0 0 0 0 0 0 0 0 0 0 0 0 0 0 0 0 0 0 0 0 0 0 1
Wind_Speed
2 3 2 5 5 4 3 2 2 3 1 1 2 1 2 3 3 3 3 3 4 4 3 2 2 3 3 2 2 1 1 1 1 1 1 1 0 1 1 1 2 2 2 1
4 2 5 3 3 3 2 1 2 2 1 2 1 0 1 3 4 4 4 4 4 3 2 3 3 3 3 3 3 2 1 1 1 1 1 1 1 0 0 1 2 2 2 1
4 5 2 2 1 2 2 4 4 3 2 3 3 2 1 2 2 2 2 3 3 5 6 4 4 4 3 4 4 3 2 1 1 1 2 2 2 2 2 2 2 2 2 2
3 3 1 1 2 3 3 4 5 4 3 1 1 1 4 2 2 3 4 4 4 4 4 4 4 4 4 4 3 3 2 2 2 2 2 2 2 1 0 0 1 2 2 2
3 2 1 3 3 4 3 2 3 3 3 2 2 1 6 0 3 6 6 6 6 5 6 6 5 5 4 3 3 3 2 2 2 2 3 3 1 1 0 1 2 2 2 2
4 2 2 3 1 3 4 6 6 5 5 1 2 2 5 4 6 6 6 6 6 6 6 5 4 4 3 3 3 3 2 2 2 3 3 3 3 2 1 1 1 1 1 2
3 3 2 2 2 2 4 6 4 4 4 4 1 2 8 6 6 7 6 6 5 5 5 5 5 4 4 4 4 3 3 3 3 3 3 3 3 3 3 2 1 0 0 1
2 4 3 3 5 5 3 7 7 5 4 4 1 4 7 4 3 3 3 4 4 4 4 5 6 6 5 5 5 4 4 4 3 3 3 3 3 2 2 2 1 1 1 1
5 5 3 1 2 7 5 3 5 7 2 0 4 6 7 1 2 1 1 3 4 4 4 5 5 5 5 5 5 5 5 4 3 3 3 3 3 3 2 2 1 1 1 1
7 2 3 2 3 4 4 7 5 6 5 2 4 4 4 4 2 1 2 3 3 2 3 3 4 4 4 5 4 4 4 4 4 3 3 3 3 3 2 2 2 1 1 1
5 3 3 3 1 3 3 4 5 5 4 5 2 6 4 5 4 4 4 3 3 3 3 3 3 3 2 2 2 2 3 3 2 3 2 2 2 2 2 2 2 1 1 1
4 5 1 4 3 1 3 5 7 5 3 3 3 7 4 3 3 3 3 2 2 2 2 2 2 2 2 2 2 2 3 3 3 2 2 2 2 2 2 2 1 1 1 1
6 6 2 5 5 3 2 2 3 6 5 4 4 6 3 2 1 1 2 2 2 3 3 3 2 2 2 1 1 1 1 2 2 2 2 2 2 2 2 2 2 2 2 1
7 5 6 7 6 3 2 2 4 5 5 4 6 6 4 1 1 1 2 2 2 3 3 3 2 1 1 1 1 1 0 0 1 2 2 2 2 2 2 2 2 2 2 1
5 4 2 3 3 3 3 4 5 4 6 7 7 6 6 5 4 3 3 3 3 3 3 3 2 1 1 2 1 1 1 1 1 1 1 1 1 1 0 0 1 1 1 1
4 4 2 1 1 1 1 1 3 3 3 3 2 4 4 2 2 3 4 4 4 3 3 2 2 2 1 1 1 2 2 1 2 2 1 0 1 1 1 1 0 1 1 1
2 5 4 1 2 2 2 4 4 3 3 5 5 6 2 2 3 4 4 4 4 3 3 3 2 2 2 1 1 1 1 2 2 2 1 1 1 1 0 1 1 0 0 0
6 5 4 3 2 3 7 2 3 3 2 3 3 3 5 4 3 1 3 4 3 3 3 2 2 2 2 2 1 1 2 2 2 2 1 1 1 1 0 1 0 0 0 0
4 7 5 4 3 4 5 3 4 4 3 3 4 4 4 5 4 2 1 3 3 3 3 2 2 2 2 2 1 2 2 2 2 1 1 0 0 0 1 0 0 1 1 0
5 5 6 5 4 6 7 3 3 4 4 4 6 7 6 6 3 3 1 3 4 4 3 3 3 3 3 1 2 3 2 2 1 1 1 1 0 0 1 1 1 1 1 1
3 4 4 4 3 7 5 2 4 4 8 4 7 7 8 5 4 3 4 3 4 5 4 4 4 3 2 2 2 2 2 1 2 1 1 1 1 0 0 0 0 1 0 0
5 4 4 4 3 7 2 3 6 7 2 3 5 6 6 4 5 5 5 5 5 5 4 4 4 3 2 2 2 2 1 1 1 1 2 2 2 1 1 0 0 0 1 1
3 5 5 7 7 4 3 5 4 2 2 3 5 5 7 6 5 5 4 4 4 4 3 3 4 3 2 1 2 1 1 1 1 2 2 2 2 2 1 0 0 0 0 1
2 1 2 1 4 3 3 2 1 1 2 3 6 7 7 6 6 5 4 4 3 3 3 3 3 3 1 1 1 1 1 1 2 2 2 2 2 2 2 1 0 0 1 1
3 1 1 2 3 3 4 2 0 2 4 6 6 5 7 8 6 5 4 3 3 3 2 3 3 2 1 1 2 1 1 1 2 1 1 2 1 1 1 1 1 1 2 2
3 4 4 5 6 4 3 2 1 4 5 6 6 5 5 6 7 5 4 3 3 3 3 3 2 1 1 1 1 1 1 1 1 0 1 1 1 1 1 1 2 2 2 2
Wind_Direction
65 81 203 218 197 196 169 176 267 272 260 114 146 154 207 186 172 179 192 200 207 214 207 180 170 152 142 140 133 135 117 94 91 83 93 77 25 9 15 14 21 33 41 53
44 266 234 206 174 161 164 191 246 302 17 114 121 76 224 201 206 200 199 209 210 203 192 185 175 163 167 171 170 166 163 143 132 139 142 137 123 59 27 6 18 28 39 40
189 235 209 141 138 149 204 191 207 196 47 56 81 353 288 260 242 218 205 215 214 203 200 193 188 191 182 188 190 188 187 165 142 122 96 74 51 31 24 19 12 8 33 43
233 254 190 159 225 167 254 219 178 164 115 342 76 280 289 262 260 237 231 222 219 207 193 191 192 195 198 207 194 189 180 163 159 139 129 127 123 124 298 346 5 7 24 38
248 228 175 227 232 169 206 105 110 109 112 69 26 134 286 316 246 244 230 220 215 200 190 190 195 196 198 197 190 194 183 180 174 160 158 152 147 159 43 35 28 18 17 29
238 240 206 217 235 149 132 71 56 50 67 28 249 165 275 236 226 235 227 216 212 201 194 195 196 189 192 191 188 185 184 205 190 172 166 166 166 155 120 57 34 11 14 19
311 294 250 170 89 36 96 90 40 4 11 260 264 197 250 246 228 222 219 208 198 193 195 193 192 195 196 196 195 188 189 213 203 183 188 190 186 177 178 187 192 219 6 1
189 278 247 186 174 178 170 142 158 192 213 268 311 240 257 259 251 227 203 189 175 179 194 202 202 198 197 199 199 194 197 213 208 195 206 203 192 184 195 200 191 198 214 238
178 244 280 220 174 146 143 162 157 128 133 333 286 286 301 353 28 65 135 158 176 182 193 202 197 196 196 198 201 196 199 208 209 204 205 207 198 192 201 202 192 203 220 229
157 217 288 289 81 47 133 142 104 115 140 233 290 279 264 287 278 234 185 185 195 177 176 185 189 195 196 197 199 189 193 202 205 203 207 203 202 200 198 185 199 209 220 241
133 154 308 16 122 169 103 92 101 106 142 154 231 268 238 232 228 206 203 192 184 174 176 170 179 185 172 158 166 182 192 197 201 200 193 188 186 182 180 188 209 211 209 205
139 122 247 276 284 167 140 154 145 144 191 167 177 263 293 226 208 184 182 171 149 148 139 130 133 115 111 132 163 183 193 196 206 192 177 185 183 167 179 197 207 185 190 193
135 116 84 342 343 11 87 124 130 121 116 149 171 263 323 37 78 123 135 131 113 108 94 79 77 89 102 110 136 178 195 202 196 166 168 179 196 192 202 208 195 176 180 174
115 111 154 191 215 199 173 161 147 125 139 184 218 244 288 297 173 138 130 129 119 113 105 93 80 70 88 91 95 92 39 124 170 162 169 188 217 213 212 208 187 176 176 179
102 126 172 212 214 176 181 183 167 169 176 180 220 219 242 222 199 178 152 140 127 119 115 117 119 108 70 62 53 56 44 39 74 108 129 218 245 229 166 175 164 149 171 202
74 121 112 16 360 179 136 182 176 180 177 199 191 249 257 196 141 145 149 151 154 153 149 141 127 110 95 83 70 68 55 43 73 88 75 8 39 64 78 66 81 131 131 190
97 119 111 209 316 53 268 223 192 199 198 172 195 226 177 141 165 172 163 162 171 169 157 147 144 138 134 132 119 111 96 81 75 71 56 47 64 79 87 103 81 108 176 97
132 110 116 125 89 210 246 250 178 176 229 206 210 205 175 167 142 137 152 157 165 159 146 142 132 117 103 84 73 85 84 80 75 69 65 72 108 130 135 127 155 205 102 128
140 132 119 123 161 267 285 237 168 158 256 215 187 171 138 111 73 26 93 136 151 146 140 136 124 114 101 96 103 92 74 77 78 64 34 343 134 180 174 176 229 204 163 172
73 96 113 127 148 219 241 233 160 109 279 227 175 164 152 128 132 235 136 99 102 99 103 101 91 88 88 80 94 91 72 59 45 3 334 337 6 178 220 224 221 212 185 221
69 67 115 146 188 251 248 229 128 163 238 205 170 166 162 170 184 161 128 107 109 110 104 98 95 95 95 95 100 92 64 6 330 348 12 21 33 21 236 211 210 171 156 131
164 150 168 146 174 246 258 140 178 214 235 154 161 160 149 133 121 125 124 118 114 108 102 100 98 87 76 90 105 91 32 333 352 13 28 28 23 6 17 61 8 126 154 171
189 188 184 184 209 246 238 223 238 180 169 174 157 147 136 132 136 133 129 125 121 117 112 102 104 96 66 71 105 94 338 358 32 33 27 23 18 15 9 354 310 25 169 206
277 122 132 262 283 293 287 276 297 174 175 158 145 140 138 139 141 134 133 128 120 109 107 103 100 93 54 17 42 53 350 34 60 45 21 15 19 4 2 354 331 218 228 233
235 150 119 265 286 334 326 316 5 81 93 103 109 118 133 132 134 137 139 140 134 117 106 108 112 117 113 32 19 13 21 58 58 36 11 8 1 351 344 334 301 256 246 230
216 186 180 219 218 191 240 277 106 105 103 115 113 111 123 135 140 137 138 139 135 128 117 111 108 104 54 51 13 354 5 58 96 29 338 333 326 330 328 331 343 342 280 284